| time (UTC) | temp C | wind direction | speed KPH | gust KPH | rain 1hr cm | rain 24hr cm | rain mn cm | humidity % | barometer mb |
| 20260509013058 | 16 | 333 | 1.6 | 8.0 | 0.00 | 0.00 | 0.00 | 54 | 1027.3 |
| 20260509011601 | 16 | 162 | 1.6 | 9.7 | 0.00 | 0.00 | 0.00 | 56 | 1027.4 |
| 20260509010237 | 15 | 344 | 1.6 | 11.3 | 0.00 | 0.00 | 0.00 | 57 | 1027.6 |
| 20260509010110 | 15 | 344 | 1.6 | 11.3 | 0.00 | 0.00 | 0.00 | 57 | 1027.6 |
| 20260509004619 | 15 | 234 | 1.6 | 8.0 | 0.00 | 0.00 | 0.00 | 60 | 1027.7 |
| 20260509003057 | 13 | 0 | 1.6 | 6.4 | 0.00 | 0.00 | 0.00 | 63 | 1027.6 |
| 20260509001557 | 13 | 15 | 1.6 | 9.7 | 0.00 | 0.00 | 0.00 | 66 | 1027.6 |
| 20260509000056 | 12 | 0 | 0.0 | 4.8 | 0.00 | 0.00 | 0.00 | 68 | 1027.5 |
| 20260508234606 | 12 | 72 | 0.0 | 4.8 | 0.00 | 0.00 | 0.00 | 69 | 1027.5 |
| 20260508233057 | 11 | 0 | 0.0 | 3.2 | 0.00 | 0.00 | 0.00 | 74 | 1027.2 |
| 20260508231558 | 9 | 0 | 0.0 | 1.6 | 0.00 | 0.00 | 0.00 | 77 | 1027.3 |
| 20260508230057 | 8 | 0 | 0.0 | 1.6 | 0.00 | 0.00 | 0.00 | 78 | 1027.1 |
| 20260508224558 | 8 | 0 | 0.0 | 3.2 | 0.00 | 0.00 | 0.00 | 79 | 1027.0 |
| 20260508223057 | 7 | 0 | 0.0 | 0.0 | 0.00 | 0.00 | 0.00 | 79 | 1026.8 |
| 20260508221553 | 7 | 0 | 0.0 | 0.0 | 0.00 | 0.00 | 0.00 | 77 | 1026.9 |
| 20260508220059 | 8 | 0 | 0.0 | 0.0 | 0.00 | 0.00 | 0.00 | 75 | 1027.1 |
| 20260508214607 | 8 | 0 | 0.0 | 0.0 | 0.00 | 0.00 | 0.00 | 74 | 1027.0 |
| 20260508213053 | 9 | 0 | 0.0 | 0.0 | 0.00 | 0.00 | 0.00 | 73 | 1026.9 |
| 20260508211558 | 10 | 0 | 0.0 | 0.0 | 0.00 | 0.00 | 0.00 | 71 | 1026.9 |
| 20260508210056 | 10 | 0 | 0.0 | 1.6 | 0.00 | 0.00 | 0.00 | 71 | 1026.7 |
| 20260508204556 | 10 | 0 | 0.0 | 0.0 | 0.00 | 0.00 | 0.00 | 70 | 1026.5 |
| 20260508203056 | 11 | 0 | 0.0 | 1.6 | 0.00 | 0.00 | 0.00 | 67 | 1026.3 |
| 20260508201557 | 11 | 314 | 0.0 | 3.2 | 0.00 | 0.00 | 0.00 | 65 | 1026.3 |
| 20260508200054 | 12 | 0 | 0.0 | 1.6 | 0.00 | 0.00 | 0.00 | 62 | 1026.1 |
| 20260508194555 | 13 | 0 | 0.0 | 3.2 | 0.00 | 0.00 | 0.00 | 60 | 1026.1 |
| 20260508193107 | 13 | 0 | 0.0 | 3.2 | 0.00 | 0.00 | 0.00 | 59 | 1026.0 |
| 20260508191557 | 13 | 0 | 0.0 | 3.2 | 0.00 | 0.00 | 0.00 | 59 | 1026.0 |
| 20260508190106 | 13 | 75 | 0.0 | 1.6 | 0.00 | 0.00 | 0.00 | 59 | 1025.9 |
| 20260508184602 | 13 | 0 | 0.0 | 3.2 | 0.00 | 0.00 | 0.00 | 58 | 1026.0 |
| 20260508183111 | 14 | 0 | 0.0 | 6.4 | 0.00 | 0.00 | 0.00 | 56 | 1026.1 |
| 20260508181552 | 14 | 0 | 0.0 | 14.5 | 0.00 | 0.00 | 0.00 | 56 | 1026.0 |
| 20260508174606 | 15 | 64 | 0.0 | 4.8 | 0.00 | 0.00 | 0.00 | 55 | 1026.0 |
| 20260508173056 | 15 | 0 | 0.0 | 9.7 | 0.00 | 0.00 | 0.00 | 54 | 1025.9 |
| 20260508171553 | 15 | 56 | 1.6 | 12.9 | 0.00 | 0.00 | 0.00 | 54 | 1026.0 |
| 20260508170104 | 15 | 0 | 1.6 | 11.3 | 0.00 | 0.00 | 0.00 | 53 | 1026.0 |
| 20260508164600 | 15 | 17 | 1.6 | 6.4 | 0.00 | 0.00 | 0.00 | 53 | 1026.1 |
| 20260508163054 | 15 | 115 | 1.6 | 4.8 | 0.00 | 0.00 | 0.00 | 53 | 1026.0 |
| 20260508161605 | 15 | 76 | 0.0 | 4.8 | 0.00 | 0.00 | 0.00 | 54 | 1025.9 |
| 20260508160056 | 13 | 0 | 0.0 | 1.6 | 0.00 | 0.00 | 0.00 | 60 | 1025.9 |
| 20260508154553 | 14 | 0 | 0.0 | 3.2 | 0.00 | 0.00 | 0.00 | 56 | 1026.0 |
| 20260508153057 | 15 | 0 | 0.0 | 1.6 | 0.00 | 0.00 | 0.00 | 54 | 1026.1 |
| 20260508151555 | 15 | 0 | 0.0 | 1.6 | 0.00 | 0.00 | 0.00 | 52 | 1026.1 |
| 20260508150055 | 16 | 0 | 0.0 | 3.2 | 0.00 | 0.00 | 0.00 | 50 | 1026.1 |
| 20260508144553 | 16 | 0 | 0.0 | 8.0 | 0.00 | 0.00 | 0.00 | 50 | 1026.1 |
| 20260508143059 | 16 | 68 | 0.0 | 4.8 | 0.00 | 0.00 | 0.00 | 53 | 1026.2 |
| 20260508141603 | 14 | 0 | 0.0 | 6.4 | 0.00 | 0.00 | 0.00 | 60 | 1026.2 |
| 20260508140054 | 12 | 0 | 0.0 | 0.0 | 0.00 | 0.00 | 0.00 | 68 | 1026.1 |
| 20260508134554 | 13 | 0 | 0.0 | 0.0 | 0.00 | 0.00 | 0.00 | 64 | 1026.3 |
| 20260508133053 | 14 | 0 | 0.0 | 0.0 | 0.00 | 0.00 | 0.00 | 63 | 1026.2 |
| 20260508131607 | 15 | 0 | 0.0 | 1.6 | 0.00 | 0.00 | 0.00 | 59 | 1026.1 |
| 20260508130057 | 15 | 0 | 0.0 | 4.8 | 0.00 | 0.00 | 0.00 | 58 | 1026.2 |
| 20260508124552 | 15 | 0 | 0.0 | 1.6 | 0.00 | 0.00 | 0.00 | 58 | 1026.1 |
| 20260508123115 | 16 | 0 | 0.0 | 3.2 | 0.00 | 0.00 | 0.00 | 57 | 1026.0 |
| 20260508121608 | 16 | 0 | 0.0 | 3.2 | 0.00 | 0.00 | 0.00 | 55 | 1025.9 |
| 20260508120107 | 17 | 109 | 0.0 | 3.2 | 0.00 | 0.00 | 0.00 | 55 | 1026.0 |
| 20260508114600 | 17 | 0 | 0.0 | 3.2 | 0.00 | 0.00 | 0.00 | 54 | 1025.9 |
| 20260508113107 | 17 | 57 | 0.0 | 6.4 | 0.00 | 0.00 | 0.00 | 54 | 1026.0 |
| 20260508111556 | 17 | 0 | 0.0 | 4.8 | 0.00 | 0.00 | 0.00 | 54 | 1025.9 |
| 20260508110106 | 17 | 0 | 0.0 | 4.8 | 0.00 | 0.00 | 0.00 | 54 | 1026.0 |
| 20260508104551 | 17 | 0 | 0.0 | 3.2 | 0.00 | 0.00 | 0.00 | 55 | 1026.0 |
| 20260508103104 | 17 | 0 | 0.0 | 0.0 | 0.00 | 0.00 | 0.00 | 52 | 1025.9 |
| 20260508101558 | 18 | 0 | 0.0 | 4.8 | 0.00 | 0.00 | 0.00 | 50 | 1025.8 |
| 20260508100059 | 19 | 0 | 0.0 | 4.8 | 0.00 | 0.00 | 0.00 | 48 | 1025.7 |
| 20260508094551 | 20 | 40 | 1.6 | 6.4 | 0.00 | 0.00 | 0.00 | 47 | 1025.6 |
| 20260508093104 | 20 | 0 | 1.6 | 6.4 | 0.00 | 0.00 | 0.00 | 48 | 1025.6 |
| 20260508091557 | 20 | 0 | 1.6 | 11.3 | 0.00 | 0.00 | 0.00 | 47 | 1025.5 |
| 20260508084558 | 21 | 0 | 0.0 | 9.7 | 0.00 | 0.00 | 0.00 | 44 | 1025.2 |
| 20260508083103 | 21 | 58 | 1.6 | 8.0 | 0.00 | 0.00 | 0.00 | 45 | 1025.2 |
| 20260508081601 | 21 | 101 | 1.6 | 12.9 | 0.00 | 0.00 | 0.00 | 44 | 1025.1 |
| 20260508080056 | 22 | 57 | 1.6 | 9.7 | 0.00 | 0.00 | 0.00 | 44 | 1025.2 |
| 20260508074554 | 22 | 78 | 3.2 | 9.7 | 0.00 | 0.00 | 0.00 | 44 | 1025.2 |
| 20260508073055 | 22 | 202 | 1.6 | 9.7 | 0.00 | 0.00 | 0.00 | 44 | 1025.2 |
| 20260508071558 | 23 | 58 | 1.6 | 17.7 | 0.00 | 0.00 | 0.00 | 44 | 1025.2 |
| 20260508070059 | 23 | 164 | 1.6 | 11.3 | 0.00 | 0.00 | 0.00 | 43 | 1025.2 |
| 20260508064555 | 23 | 104 | 1.6 | 12.9 | 0.00 | 0.00 | 0.00 | 44 | 1025.4 |
| 20260508063103 | 23 | 30 | 1.6 | 11.3 | 0.00 | 0.00 | 0.00 | 44 | 1025.5 |
| 20260508062126 | 23 | 0 | 1.6 | 16.1 | 0.00 | 0.00 | 0.00 | 44 | 1025.5 |
| 20260508053106 | 23 | 36 | 0.0 | 9.7 | 0.00 | 0.00 | 0.00 | 47 | 1026.1 |
| 20260508051554 | 22 | 0 | 1.6 | 12.9 | 0.00 | 0.00 | 0.00 | 47 | 1026.3 |
| 20260508044554 | 22 | 334 | 3.2 | 14.5 | 0.00 | 0.00 | 0.00 | 49 | 1026.7 |
| 20260508043100 | 21 | 313 | 1.6 | 16.1 | 0.00 | 0.00 | 0.00 | 48 | 1026.9 |
| 20260508041602 | 21 | 271 | 1.6 | 8.0 | 0.00 | 0.00 | 0.00 | 49 | 1027.3 |
| 20260508040052 | 21 | 0 | 1.6 | 8.0 | 0.00 | 0.00 | 0.00 | 51 | 1027.6 |
| 20260508034611 | 21 | 360 | 1.6 | 8.0 | 0.00 | 0.00 | 0.00 | 51 | 1027.9 |
| 20260508033058 | 21 | 314 | 1.6 | 9.7 | 0.00 | 0.00 | 0.00 | 52 | 1028.3 |
| 20260508031557 | 20 | 70 | 1.6 | 9.7 | 0.00 | 0.00 | 0.00 | 54 | 1028.4 |
| 20260508030054 | 20 | 288 | 1.6 | 9.7 | 0.00 | 0.00 | 0.00 | 54 | 1028.7 |
| 20260508024555 | 19 | 83 | 1.6 | 9.7 | 0.00 | 0.00 | 0.00 | 56 | 1028.8 |
| 20260508023056 | 18 | 0 | 1.6 | 6.4 | 0.00 | 0.00 | 0.00 | 59 | 1028.9 |
| 20260508021600 | 18 | 144 | 0.0 | 6.4 | 0.00 | 0.00 | 0.00 | 60 | 1029.1 |
| 20260508020100 | 17 | 0 | 1.6 | 11.3 | 0.00 | 0.00 | 0.00 | 62 | 1029.1 |
| 20260508014556 | 17 | 31 | 1.6 | 14.5 | 0.00 | 0.00 | 0.00 | 63 | 1029.3 |